Time,TemperatureF,DewpointF,PressureIn,WindDirection,WindDirectionDegrees,WindSpeedMPH,WindSpeedGustMPH,Humidity,HourlyPrecipIn,Conditions,Clouds,dailyrainin,SolarRadiationWatts/m^2,SoftwareType,DateUTC
2013-01-01 00:04:00,-8.9,-12.4,30.35,NNW,329,0.0,0.0,84,0.00,,---,0.00,0.00,VWS V14.00,2013-01-01 06:04:00,
2013-01-01 00:09:00,-8.9,-12.4,30.36,NNW,329,0.0,0.0,84,0.00,,---,0.00,0.00,VWS V14.00,2013-01-01 06:09:00,
2013-01-01 00:14:00,-9.0,-12.5,30.36,NNW,329,0.0,0.0,84,0.00,,---,0.00,0.00,VWS V14.00,2013-01-01 06:14:00,
2013-01-01 00:20:00,-9.1,-12.9,30.36,NNW,329,0.0,0.0,83,0.00,,---,0.00,0.00,VWS V14.00,2013-01-01 06:20:00,
2013-01-01 00:25:00,-9.3,-12.8,30.36,NNW,329,0.0,0.0,84,0.00,,---,0.00,0.00,VWS V14.00,2013-01-01 06:25:00,
2013-01-01 00:30:00,-9.4,-12.9,30.36,NNW,329,0.0,0.0,84,0.00,,---,0.00,0.00,VWS V14.00,2013-01-01 06:30:00,
2013-01-01 00:35:00,-9.5,-13.2,30.35,NNW,329,0.0,0.0,83,0.00,,---,0.00,0.00,VWS V14.00,2013-01-01 06:35:00,
2013-01-01 00:40:00,-9.8,-13.5,30.35,NNW,329,0.0,0.0,83,0.00,,---,0.00,0.00,VWS V14.00,2013-01-01 06:40:00,
2013-01-01 00:45:00,-9.9,-13.6,30.35,NNW,329,0.0,0.0,83,0.00,,---,0.00,0.00,VWS V14.00,2013-01-01 06:45:00,
2013-01-01 00:50:00,-10.2,-13.9,30.35,NNW,329,0.0,0.0,83,0.00,,---,0.00,0.00,VWS V14.00,2013-01-01 06:50:00,
2013-01-01 00:55:00,-10.3,-14.0,30.35,NNW,329,0.0,0.0,83,0.00,,---,0.00,0.00,VWS V14.00,2013-01-01 06:55:00,
2013-01-01 01:00:00,-10.3,-13.8,30.35,NNW,329,0.0,0.0,84,0.00,,---,0.00,0.00,VWS V14.00,2013-01-01 07:00:00,
2013-01-01 01:05:00,-10.1,-13.4,30.35,NNW,329,0.0,0.0,85,0.00,,---,0.00,0.00,VWS V14.00,2013-01-01 07:05:00,
2013-01-01 01:10:00,-10.0,-13.3,30.35,NNW,329,0.0,0.0,85,0.00,,---,0.00,0.00,VWS V14.00,2013-01-01 07:10:00,
2013-01-01 01:15:00,-10.0,-13.5,30.35,NNW,329,0.0,0.0,84,0.00,,---,0.00,0.00,VWS V14.00,2013-01-01 07:15:00,
2013-01-01 01:21:00,-9.7,-12.7,30.35,NNW,329,0.0,0.0,86,0.00,,---,0.00,0.00,VWS V14.00,2013-01-01 07:21:00,
2013-01-01 01:26:00,-9.7,-13.0,30.35,NNW,329,0.0,0.0,85,0.00,,---,0.00,0.00,VWS V14.00,2013-01-01 07:26:00,
2013-01-01 01:31:00,-9.4,-12.7,30.35,NNW,329,0.0,0.0,85,0.00,,---,0.00,0.00,VWS V14.00,2013-01-01 07:31:00,
2013-01-01 01:36:00,-9.1,-12.1,30.35,NNW,329,0.0,0.0,86,0.00,,---,0.00,0.00,VWS V14.00,2013-01-01 07:36:00,
2013-01-01 01:41:00,-9.2,-12.5,30.35,NNW,329,0.0,0.0,85,0.00,,---,0.00,0.00,VWS V14.00,2013-01-01 07:41:00,
2013-01-01 01:46:00,-9.4,-12.9,30.35,NNW,329,0.0,0.0,84,0.00,,---,0.00,0.00,VWS V14.00,2013-01-01 07:46:00,
2013-01-01 01:51:00,-9.7,-13.4,30.35,NNW,329,0.0,0.0,83,0.00,,---,0.00,0.00,VWS V14.00,2013-01-01 07:51:00,
2013-01-01 01:56:00,-9.8,-13.5,30.35,NNW,329,0.0,0.0,83,0.00,,---,0.00,0.00,VWS V14.00,2013-01-01 07:56:00,
2013-01-01 02:01:00,-10.1,-13.8,30.36,NNW,329,0.0,0.0,83,0.00,,---,0.00,0.00,VWS V14.00,2013-01-01 08:01:00,
2013-01-01 02:07:00,-10.2,-13.9,30.36,NNW,329,0.0,0.0,83,0.00,,---,0.00,0.00,VWS V14.00,2013-01-01 08:07:00,
2013-01-01 02:12:00,-10.2,-13.7,30.36,NNW,329,0.0,0.0,84,0.00,,---,0.00,0.00,VWS V14.00,2013-01-01 08:12:00,
2013-01-01 02:17:00,-10.3,-13.8,30.36,NNW,329,0.0,0.0,84,0.00,,---,0.00,0.00,VWS V14.00,2013-01-01 08:17:00,
2013-01-01 02:22:00,-10.0,-13.3,30.36,NNW,329,0.0,0.0,85,0.00,,---,0.00,0.00,VWS V14.00,2013-01-01 08:22:00,
2013-01-01 02:27:00,-9.2,-12.0,30.36,NNW,329,0.0,1.0,87,0.00,,---,0.00,0.00,VWS V14.00,2013-01-01 08:27:00,
2013-01-01 02:32:00,-8.6,-11.6,30.37,NNW,329,0.0,1.0,86,0.00,,---,0.00,0.00,VWS V14.00,2013-01-01 08:32:00,
2013-01-01 02:37:00,-8.4,-11.7,30.36,NNW,329,0.0,1.0,85,0.00,,---,0.00,0.00,VWS V14.00,2013-01-01 08:37:00,
2013-01-01 02:42:00,-8.3,-11.6,30.36,NNW,329,0.0,1.0,85,0.00,,---,0.00,0.00,VWS V14.00,2013-01-01 08:42:00,
2013-01-01 02:47:00,-8.3,-11.8,30.36,NNW,329,0.0,1.0,84,0.00,,---,0.00,0.00,VWS V14.00,2013-01-01 08:47:00,
2013-01-01 02:52:00,-8.6,-12.4,30.36,NNW,329,0.0,1.0,83,0.00,,---,0.00,0.00,VWS V14.00,2013-01-01 08:52:00,
2013-01-01 02:58:00,-8.9,-12.9,30.36,NNW,329,0.0,1.0,82,0.00,,---,0.00,0.00,VWS V14.00,2013-01-01 08:58:00,
2013-01-01 03:03:00,-9.2,-13.2,30.36,NNW,329,0.0,0.0,82,0.00,,---,0.00,0.00,VWS V14.00,2013-01-01 09:03:00,
2013-01-01 03:08:00,-9.5,-13.5,30.36,NNW,329,0.0,0.0,82,0.00,,---,0.00,0.00,VWS V14.00,2013-01-01 09:08:00,
2013-01-01 03:13:00,-9.8,-13.8,30.36,NNW,329,0.0,0.0,82,0.00,,---,0.00,0.00,VWS V14.00,2013-01-01 09:13:00,
2013-01-01 03:18:00,-10.1,-14.1,30.36,NNW,329,0.0,1.0,82,0.00,,---,0.00,0.00,VWS V14.00,2013-01-01 09:18:00,
2013-01-01 03:23:00,-10.2,-14.2,30.36,NNW,329,0.0,1.0,82,0.00,,---,0.00,0.00,VWS V14.00,2013-01-01 09:23:00,
2013-01-01 03:28:00,-10.0,-13.5,30.36,NNW,329,0.0,0.0,84,0.00,,---,0.00,0.00,VWS V14.00,2013-01-01 09:28:00,
2013-01-01 03:33:00,-9.4,-12.4,30.36,NNW,329,0.0,0.0,86,0.00,,---,0.00,0.00,VWS V14.00,2013-01-01 09:33:00,
2013-01-01 03:38:00,-9.1,-12.1,30.36,NNW,329,0.0,0.0,86,0.00,,---,0.00,0.00,VWS V14.00,2013-01-01 09:38:00,
2013-01-01 03:43:00,-8.8,-11.9,30.36,NNW,329,0.0,0.0,86,0.00,,---,0.00,0.00,VWS V14.00,2013-01-01 09:43:00,
2013-01-01 03:49:00,-8.4,-11.4,30.36,NNW,329,0.0,1.0,86,0.00,,---,0.00,0.00,VWS V14.00,2013-01-01 09:49:00,
2013-01-01 03:54:00,-8.4,-11.9,30.36,NNW,329,0.0,1.0,84,0.00,,---,0.00,0.00,VWS V14.00,2013-01-01 09:54:00,
2013-01-01 03:59:00,-8.5,-12.0,30.36,NNW,329,0.0,2.0,84,0.00,,---,0.00,0.00,VWS V14.00,2013-01-01 09:59:00,
2013-01-01 04:04:00,-8.5,-12.0,30.35,NNW,329,0.0,2.0,84,0.00,,---,0.00,0.00,VWS V14.00,2013-01-01 10:04:00,
2013-01-01 04:09:00,-8.7,-12.5,30.35,NNW,329,0.0,2.0,83,0.00,,---,0.00,0.00,VWS V14.00,2013-01-01 10:09:00,
2013-01-01 04:14:00,-8.8,-12.6,30.36,NNW,329,0.0,2.0,83,0.00,,---,0.00,0.00,VWS V14.00,2013-01-01 10:14:00,
2013-01-01 04:19:00,-8.8,-12.6,30.36,NNW,329,0.0,2.0,83,0.00,,---,0.00,0.00,VWS V14.00,2013-01-01 10:19:00,
2013-01-01 04:24:00,-8.8,-12.6,30.36,NNW,329,0.0,2.0,83,0.00,,---,0.00,0.00,VWS V14.00,2013-01-01 10:24:00,
2013-01-01 04:29:00,-8.7,-12.2,30.36,NNW,329,0.0,1.0,84,0.00,,---,0.00,0.00,VWS V14.00,2013-01-01 10:29:00,
2013-01-01 04:34:00,-8.6,-12.1,30.36,NNW,329,0.0,1.0,84,0.00,,---,0.00,0.00,VWS V14.00,2013-01-01 10:34:00,
2013-01-01 04:39:00,-8.4,-11.9,30.36,NNW,328,0.0,1.0,84,0.00,,---,0.00,0.00,VWS V14.00,2013-01-01 10:39:00,
2013-01-01 04:44:00,-8.4,-11.9,30.36,NNW,327,0.0,2.0,84,0.00,,---,0.00,0.00,VWS V14.00,2013-01-01 10:44:00,
2013-01-01 04:49:00,-8.5,-12.0,30.36,NNW,327,0.0,2.0,84,0.00,,---,0.00,0.00,VWS V14.00,2013-01-01 10:49:00,
2013-01-01 04:54:00,-8.5,-12.3,30.36,NNW,327,1.0,2.0,83,0.00,,---,0.00,0.00,VWS V14.00,2013-01-01 10:54:00,
2013-01-01 04:59:00,-8.5,-12.0,30.36,NNW,327,0.0,0.0,84,0.00,,---,0.00,0.00,VWS V14.00,2013-01-01 10:59:00,
2013-01-01 05:04:00,-8.6,-12.4,30.36,NNW,327,0.0,1.0,83,0.00,,---,0.00,0.00,VWS V14.00,2013-01-01 11:04:00,
2013-01-01 05:09:00,-8.8,-12.6,30.36,NNW,327,0.0,1.0,83,0.00,,---,0.00,0.00,VWS V14.00,2013-01-01 11:09:00,
2013-01-01 05:14:00,-8.9,-12.7,30.36,NNW,327,0.0,1.0,83,0.00,,---,0.00,0.00,VWS V14.00,2013-01-01 11:14:00,
2013-01-01 05:19:00,-9.1,-13.1,30.36,NNW,327,0.0,1.0,82,0.00,,---,0.00,0.00,VWS V14.00,2013-01-01 11:19:00,
2013-01-01 05:24:00,-9.3,-13.3,30.36,NNW,327,0.0,1.0,82,0.00,,---,0.00,0.00,VWS V14.00,2013-01-01 11:24:00,
2013-01-01 05:29:00,-9.4,-13.4,30.36,NNW,327,0.0,0.0,82,0.00,,---,0.00,0.00,VWS V14.00,2013-01-01 11:29:00,
2013-01-01 05:35:00,-9.6,-13.6,30.36,NNW,327,0.0,0.0,82,0.00,,---,0.00,0.00,VWS V14.00,2013-01-01 11:35:00,
2013-01-01 05:40:00,-9.8,-13.8,30.37,NNW,327,0.0,0.0,82,0.00,,---,0.00,0.00,VWS V14.00,2013-01-01 11:40:00,
2013-01-01 05:45:00,-10.1,-14.3,30.37,NNW,327,0.0,0.0,81,0.00,,---,0.00,0.00,VWS V14.00,2013-01-01 11:45:00,
2013-01-01 05:50:00,-10.4,-14.6,30.37,NNW,327,0.0,0.0,81,0.00,,---,0.00,0.00,VWS V14.00,2013-01-01 11:50:00,
2013-01-01 05:55:00,-10.7,-14.9,30.38,NNW,327,0.0,0.0,81,0.00,,---,0.00,0.00,VWS V14.00,2013-01-01 11:55:00,
2013-01-01 06:00:00,-11.0,-15.2,30.38,NNW,327,0.0,0.0,81,0.00,,---,0.00,0.00,VWS V14.00,2013-01-01 12:00:00,
2013-01-01 06:05:00,-11.2,-15.4,30.37,NNW,327,0.0,0.0,81,0.00,,---,0.00,0.00,VWS V14.00,2013-01-01 12:05:00,
2013-01-01 06:10:00,-11.5,-15.7,30.37,NNW,327,0.0,0.0,81,0.00,,---,0.00,0.00,VWS V14.00,2013-01-01 12:10:00,
2013-01-01 06:15:00,-11.7,-15.9,30.37,NNW,327,0.0,0.0,81,0.00,,---,0.00,0.00,VWS V14.00,2013-01-01 12:15:00,
2013-01-01 06:20:00,-11.9,-16.1,30.37,NNW,327,0.0,0.0,81,0.00,,---,0.00,0.00,VWS V14.00,2013-01-01 12:20:00,
2013-01-01 06:25:00,-12.1,-16.3,30.37,NNW,327,0.0,0.0,81,0.00,,---,0.00,0.00,VWS V14.00,2013-01-01 12:25:00,
2013-01-01 06:30:00,-12.3,-16.5,30.37,NNW,327,0.0,0.0,81,0.00,,---,0.00,0.00,VWS V14.00,2013-01-01 12:30:00,
2013-01-01 06:35:00,-12.2,-15.9,30.38,NNW,327,0.0,0.0,83,0.00,,---,0.00,0.00,VWS V14.00,2013-01-01 12:35:00,
2013-01-01 06:40:00,-12.1,-16.0,30.38,NNW,327,0.0,0.0,82,0.00,,---,0.00,0.00,VWS V14.00,2013-01-01 12:40:00,
2013-01-01 06:45:00,-12.1,-16.0,30.37,NNW,327,0.0,0.0,82,0.00,,---,0.00,0.00,VWS V14.00,2013-01-01 12:45:00,
2013-01-01 06:50:00,-12.3,-16.2,30.37,NNW,327,0.0,0.0,82,0.00,,---,0.00,0.00,VWS V14.00,2013-01-01 12:50:00,
2013-01-01 06:56:00,-12.3,-16.2,30.37,NNW,327,0.0,0.0,82,0.00,,---,0.00,0.00,VWS V14.00,2013-01-01 12:56:00,
2013-01-01 07:01:00,-12.1,-15.8,30.37,NNW,327,0.0,0.0,83,0.00,,---,0.00,0.00,VWS V14.00,2013-01-01 13:01:00,
2013-01-01 07:06:00,-11.7,-15.2,30.37,NNW,327,0.0,1.0,84,0.00,,---,0.00,0.00,VWS V14.00,2013-01-01 13:06:00,
2013-01-01 07:11:00,-11.5,-15.0,30.36,NNW,327,0.0,1.0,84,0.00,,---,0.00,0.00,VWS V14.00,2013-01-01 13:11:00,
2013-01-01 07:16:00,-11.4,-14.9,30.36,NNW,327,0.0,1.0,84,0.00,,---,0.00,0.00,VWS V14.00,2013-01-01 13:16:00,
2013-01-01 07:21:00,-11.4,-15.1,30.36,NNW,327,0.0,1.0,83,0.00,,---,0.00,0.00,VWS V14.00,2013-01-01 13:21:00,
2013-01-01 07:26:00,-11.2,-14.7,30.36,NNW,327,0.0,1.0,84,0.00,,---,0.00,0.00,VWS V14.00,2013-01-01 13:26:00,
2013-01-01 07:31:00,-11.1,-14.6,30.36,NNW,327,0.0,0.0,84,0.00,,---,0.00,0.00,VWS V14.00,2013-01-01 13:31:00,
2013-01-01 07:36:00,-10.9,-14.4,30.36,NNW,327,0.0,1.0,84,0.00,,---,0.00,0.00,VWS V14.00,2013-01-01 13:36:00,
2013-01-01 07:41:00,-10.6,-14.1,30.36,NNW,327,0.0,1.0,84,0.00,,---,0.00,0.00,VWS V14.00,2013-01-01 13:41:00,
2013-01-01 07:46:00,-10.3,-13.6,30.36,NNW,327,0.0,1.0,85,0.00,,---,0.00,0.00,VWS V14.00,2013-01-01 13:46:00,
2013-01-01 07:51:00,-10.1,-13.4,30.36,NNW,327,0.0,1.0,85,0.00,,---,0.00,0.00,VWS V14.00,2013-01-01 13:51:00,
2013-01-01 07:56:00,-9.8,-13.1,30.36,NNW,327,0.0,1.0,85,0.00,,---,0.00,5.00,VWS V14.00,2013-01-01 13:56:00,
2013-01-01 08:01:00,-9.5,-12.8,30.36,NNW,327,0.0,0.0,85,0.00,,---,0.00,7.00,VWS V14.00,2013-01-01 14:01:00,
2013-01-01 08:06:00,-9.3,-12.6,30.36,NNW,327,0.0,0.0,85,0.00,,---,0.00,11.00,VWS V14.00,2013-01-01 14:06:00,
2013-01-01 08:11:00,-9.1,-12.6,30.35,NNW,327,0.0,0.0,84,0.00,,---,0.00,12.00,VWS V14.00,2013-01-01 14:11:00,
2013-01-01 08:16:00,-9.0,-12.5,30.35,NNW,327,0.0,0.0,84,0.00,,---,0.00,14.00,VWS V14.00,2013-01-01 14:16:00,
2013-01-01 08:21:00,-9.0,-12.8,30.35,NNW,327,0.0,0.0,83,0.00,,---,0.00,16.00,VWS V14.00,2013-01-01 14:21:00,
2013-01-01 08:26:00,-9.0,-12.8,30.35,NNW,327,0.0,0.0,83,0.00,,---,0.00,18.00,VWS V14.00,2013-01-01 14:26:00,
2013-01-01 08:31:00,-9.0,-12.8,30.35,NNW,327,0.0,0.0,83,0.00,,---,0.00,21.00,VWS V14.00,2013-01-01 14:31:00,
2013-01-01 08:36:00,-8.9,-12.7,30.35,NNW,327,0.0,0.0,83,0.00,,---,0.00,25.00,VWS V14.00,2013-01-01 14:36:00,
2013-01-01 08:42:00,-8.8,-12.6,30.35,NNW,327,0.0,0.0,83,0.00,,---,0.00,32.00,VWS V14.00,2013-01-01 14:42:00,
2013-01-01 08:47:00,-8.6,-12.1,30.35,South,174,0.0,1.0,84,0.00,,---,0.00,32.00,VWS V14.00,2013-01-01 14:47:00,
2013-01-01 08:52:00,-8.4,-11.9,30.35,South,174,0.0,1.0,84,0.00,,---,0.00,23.00,VWS V14.00,2013-01-01 14:52:00,
2013-01-01 08:57:00,-8.3,-12.1,30.35,SE,142,0.0,3.0,83,0.00,,---,0.00,35.00,VWS V14.00,2013-01-01 14:57:00,
2013-01-01 09:02:00,-8.2,-12.0,30.35,SE,142,0.0,0.0,83,0.00,,---,0.00,40.00,VWS V14.00,2013-01-01 15:02:00,
2013-01-01 09:07:00,-8.1,-11.6,30.35,SE,142,0.0,0.0,84,0.00,,---,0.00,37.00,VWS V14.00,2013-01-01 15:07:00,
2013-01-01 09:12:00,-7.9,-11.4,30.35,SE,142,0.0,0.0,84,0.00,,---,0.00,35.00,VWS V14.00,2013-01-01 15:12:00,
2013-01-01 09:17:00,-7.6,-11.1,30.35,SE,142,0.0,2.0,84,0.00,,---,0.00,35.00,VWS V14.00,2013-01-01 15:17:00,
2013-01-01 09:23:00,-7.2,-10.8,30.35,SE,142,0.0,2.0,84,0.00,,---,0.00,32.00,VWS V14.00,2013-01-01 15:23:00,
2013-01-01 09:28:00,-6.9,-10.4,30.35,SSE,163,0.0,2.0,84,0.00,,---,0.00,28.00,VWS V14.00,2013-01-01 15:28:00,
2013-01-01 09:33:00,-6.8,-10.4,30.35,SSE,163,0.0,2.0,84,0.00,,---,0.00,28.00,VWS V14.00,2013-01-01 15:33:00,
2013-01-01 09:38:00,-6.7,-10.5,30.35,SSE,163,0.0,2.0,83,0.00,,---,0.00,33.00,VWS V14.00,2013-01-01 15:38:00,
2013-01-01 09:43:00,-6.5,-10.3,30.35,South,169,0.0,2.0,83,0.00,,---,0.00,37.00,VWS V14.00,2013-01-01 15:43:00,
2013-01-01 09:48:00,-6.4,-10.2,30.35,SSE,167,0.0,2.0,83,0.00,,---,0.00,58.00,VWS V14.00,2013-01-01 15:48:00,
2013-01-01 09:53:00,-5.9,-9.5,30.35,South,169,0.0,2.0,84,0.00,,---,0.00,100.00,VWS V14.00,2013-01-01 15:53:00,
2013-01-01 09:58:00,-5.3,-8.9,30.35,SSE,167,0.0,0.0,84,0.00,,---,0.00,90.00,VWS V14.00,2013-01-01 15:58:00,
2013-01-01 10:03:00,-4.8,-8.1,30.35,SSE,167,0.0,2.0,85,0.00,,---,0.00,86.00,VWS V14.00,2013-01-01 16:03:00,
2013-01-01 10:08:00,-4.3,-7.7,30.35,SSE,167,0.0,2.0,85,0.00,,---,0.00,84.00,VWS V14.00,2013-01-01 16:08:00,
2013-01-01 10:13:00,-3.9,-7.5,30.35,SSE,167,0.0,2.0,84,0.00,,---,0.00,86.00,VWS V14.00,2013-01-01 16:13:00,
2013-01-01 10:18:00,-3.6,-7.2,30.35,SSE,167,0.0,2.0,84,0.00,,---,0.00,91.00,VWS V14.00,2013-01-01 16:18:00,
2013-01-01 10:23:00,-3.1,-6.5,30.35,SSE,167,0.0,2.0,85,0.00,,---,0.00,98.00,VWS V14.00,2013-01-01 16:23:00,
2013-01-01 10:29:00,-2.7,-6.1,30.34,SSE,167,0.0,0.0,85,0.00,,---,0.00,95.00,VWS V14.00,2013-01-01 16:29:00,
2013-01-01 10:34:00,-2.3,-5.9,30.34,SSE,167,1.0,1.0,84,0.00,,---,0.00,98.00,VWS V14.00,2013-01-01 16:34:00,
2013-01-01 10:39:00,-2.0,-5.6,30.34,SSE,155,0.0,2.0,84,0.00,,---,0.00,97.00,VWS V14.00,2013-01-01 16:39:00,
2013-01-01 10:44:00,-1.6,-5.2,30.34,SSE,155,0.0,2.0,84,0.00,,---,0.00,98.00,VWS V14.00,2013-01-01 16:44:00,
2013-01-01 10:49:00,-1.2,-4.6,30.33,SSE,155,0.0,2.0,85,0.00,,---,0.00,104.00,VWS V14.00,2013-01-01 16:49:00,
2013-01-01 10:54:00,-0.7,-4.1,30.33,SSE,155,0.0,2.0,85,0.00,,---,0.00,104.00,VWS V14.00,2013-01-01 16:54:00,
2013-01-01 10:59:00,-0.3,-4.0,30.33,SSE,155,0.0,0.0,84,0.00,,---,0.00,107.00,VWS V14.00,2013-01-01 16:59:00,
2013-01-01 11:04:00,0.1,-3.6,30.33,SSE,155,0.0,1.0,84,0.00,,---,0.00,113.00,VWS V14.00,2013-01-01 17:04:00,
2013-01-01 11:09:00,0.6,-3.1,30.33,SSE,155,0.0,1.0,84,0.00,,---,0.00,118.00,VWS V14.00,2013-01-01 17:09:00,
2013-01-01 11:14:00,0.9,-3.0,30.32,SSE,155,0.0,1.0,83,0.00,,---,0.00,120.00,VWS V14.00,2013-01-01 17:14:00,
2013-01-01 11:20:00,1.3,-2.7,30.32,SSE,154,0.0,2.0,83,0.00,,---,0.00,120.00,VWS V14.00,2013-01-01 17:20:00,
2013-01-01 11:25:00,1.6,-2.4,30.32,SSE,154,1.0,2.0,83,0.00,,---,0.00,116.00,VWS V14.00,2013-01-01 17:25:00,
2013-01-01 11:30:00,1.7,-2.8,30.31,SSE,154,0.0,2.0,81,0.00,,---,0.00,121.00,VWS V14.00,2013-01-01 17:30:00,
2013-01-01 11:35:00,1.9,-2.6,30.31,SSE,154,0.0,2.0,81,0.00,,---,0.00,116.00,VWS V14.00,2013-01-01 17:35:00,
2013-01-01 11:40:00,2.2,-2.3,30.31,SSE,154,0.0,2.0,81,0.00,,---,0.00,127.00,VWS V14.00,2013-01-01 17:40:00,
2013-01-01 11:45:00,2.6,-1.9,30.31,SSE,154,1.0,2.0,81,0.00,,---,0.00,132.00,VWS V14.00,2013-01-01 17:45:00,
2013-01-01 11:50:00,2.8,-2.0,30.30,South,176,2.0,2.0,80,0.00,,---,0.00,125.00,VWS V14.00,2013-01-01 17:50:00,
2013-01-01 11:55:00,3.1,-1.9,30.30,South,178,2.0,2.0,79,0.00,,---,0.00,125.00,VWS V14.00,2013-01-01 17:55:00,
2013-01-01 12:00:00,3.4,-1.6,30.30,South,178,0.0,0.0,79,0.00,,---,0.00,123.00,VWS V14.00,2013-01-01 18:00:00,
2013-01-01 12:05:00,3.8,-1.2,30.30,South,178,0.0,2.0,79,0.00,,---,0.00,125.00,VWS V14.00,2013-01-01 18:05:00,
2013-01-01 12:10:00,4.2,-1.1,30.30,South,181,1.0,4.0,78,0.00,,---,0.00,121.00,VWS V14.00,2013-01-01 18:10:00,
2013-01-01 12:16:00,4.5,-0.8,30.29,South,178,1.0,4.0,78,0.00,,---,0.00,113.00,VWS V14.00,2013-01-01 18:16:00,
2013-01-01 12:21:00,4.9,-0.4,30.29,South,171,0.0,4.0,78,0.00,,---,0.00,116.00,VWS V14.00,2013-01-01 18:21:00,
2013-01-01 12:26:00,5.3,-0.1,30.29,SSE,167,0.0,4.0,78,0.00,,---,0.00,111.00,VWS V14.00,2013-01-01 18:26:00,
2013-01-01 12:31:00,5.8,0.2,30.29,South,169,0.0,2.0,77,0.00,,---,0.00,109.00,VWS V14.00,2013-01-01 18:31:00,
2013-01-01 12:36:00,6.1,0.4,30.28,South,176,0.0,3.0,77,0.00,,---,0.00,104.00,VWS V14.00,2013-01-01 18:36:00,
2013-01-01 12:41:00,6.6,1.2,30.28,South,176,0.0,3.0,78,0.00,,---,0.00,95.00,VWS V14.00,2013-01-01 18:41:00,
2013-01-01 12:46:00,7.0,1.3,30.28,South,176,0.0,3.0,77,0.00,,---,0.00,88.00,VWS V14.00,2013-01-01 18:46:00,
2013-01-01 12:51:00,7.4,1.7,30.28,South,176,1.0,3.0,77,0.00,,---,0.00,84.00,VWS V14.00,2013-01-01 18:51:00,
2013-01-01 12:56:00,7.6,1.4,30.28,SSE,154,1.0,3.0,75,0.00,,---,0.00,84.00,VWS V14.00,2013-01-01 18:56:00,
2013-01-01 13:01:00,7.8,1.8,30.28,SSE,155,1.0,2.0,76,0.00,,---,0.00,83.00,VWS V14.00,2013-01-01 19:01:00,
2013-01-01 13:06:00,8.0,2.3,30.27,SSW,200,0.0,3.0,77,0.00,,---,0.00,77.00,VWS V14.00,2013-01-01 19:06:00,
2013-01-01 13:11:00,8.3,2.6,30.27,SSW,200,0.0,3.0,77,0.00,,---,0.00,76.00,VWS V14.00,2013-01-01 19:11:00,
2013-01-01 13:16:00,8.5,2.5,30.27,SSE,161,0.0,4.0,76,0.00,,---,0.00,77.00,VWS V14.00,2013-01-01 19:16:00,
2013-01-01 13:22:00,8.7,3.0,30.27,SSE,162,0.0,4.0,77,0.00,,---,0.00,74.00,VWS V14.00,2013-01-01 19:22:00,
2013-01-01 13:27:00,8.9,3.2,30.27,South,175,0.0,4.0,77,0.00,,---,0.00,67.00,VWS V14.00,2013-01-01 19:27:00,
2013-01-01 13:32:00,9.0,3.3,30.27,SSE,150,0.0,3.0,77,0.00,,---,0.00,63.00,VWS V14.00,2013-01-01 19:32:00,
2013-01-01 13:37:00,9.1,3.7,30.27,SSE,150,0.0,3.0,78,0.00,,---,0.00,62.00,VWS V14.00,2013-01-01 19:37:00,
2013-01-01 13:42:00,9.4,3.9,30.27,South,182,3.0,3.0,78,0.00,,---,0.00,56.00,VWS V14.00,2013-01-01 19:42:00,
2013-01-01 13:47:00,9.5,4.0,30.27,South,169,1.0,4.0,78,0.00,,---,0.00,53.00,VWS V14.00,2013-01-01 19:47:00,
2013-01-01 13:52:00,9.6,4.1,30.27,South,178,0.0,4.0,78,0.00,,---,0.00,47.00,VWS V14.00,2013-01-01 19:52:00,
2013-01-01 13:57:00,9.8,4.3,30.27,South,177,0.0,4.0,78,0.00,,---,0.00,47.00,VWS V14.00,2013-01-01 19:57:00,
2013-01-01 14:02:00,9.8,4.3,30.26,SSW,194,0.0,7.0,78,0.00,,---,0.00,44.00,VWS V14.00,2013-01-01 20:02:00,
2013-01-01 14:08:00,9.9,4.4,30.26,SSW,202,1.0,7.0,78,0.00,,---,0.00,42.00,VWS V14.00,2013-01-01 20:08:00,
2013-01-01 14:13:00,9.9,4.4,30.26,South,178,0.0,7.0,78,0.00,,---,0.00,42.00,VWS V14.00,2013-01-01 20:13:00,
2013-01-01 14:18:00,9.8,4.3,30.26,South,182,0.0,7.0,78,0.00,,---,0.00,42.00,VWS V14.00,2013-01-01 20:18:00,
2013-01-01 14:23:00,9.9,4.7,30.26,ESE,113,0.0,7.0,79,0.00,,---,0.00,42.00,VWS V14.00,2013-01-01 20:23:00,
2013-01-01 14:28:00,9.9,4.7,30.26,South,178,1.0,1.0,79,0.00,,---,0.00,42.00,VWS V14.00,2013-01-01 20:28:00,
2013-01-01 14:33:00,9.9,4.7,30.26,South,178,0.0,2.0,79,0.00,,---,0.00,40.00,VWS V14.00,2013-01-01 20:33:00,
2013-01-01 14:38:00,9.9,4.7,30.26,SSE,153,0.0,3.0,79,0.00,,---,0.00,39.00,VWS V14.00,2013-01-01 20:38:00,
2013-01-01 14:43:00,9.9,4.7,30.26,SSE,163,0.0,3.0,79,0.00,,---,0.00,39.00,VWS V14.00,2013-01-01 20:43:00,
2013-01-01 14:48:00,10.0,5.1,30.26,SSE,165,0.0,3.0,80,0.00,,---,0.00,37.00,VWS V14.00,2013-01-01 20:48:00,
2013-01-01 14:53:00,10.0,5.1,30.26,SSE,164,2.0,3.0,80,0.00,,---,0.00,35.00,VWS V14.00,2013-01-01 20:53:00,
2013-01-01 14:59:00,10.1,5.2,30.26,SSE,164,0.0,1.0,80,0.00,,---,0.00,35.00,VWS V14.00,2013-01-01 20:59:00,
2013-01-01 15:04:00,10.3,5.4,30.26,South,178,0.0,2.0,80,0.00,,---,0.00,33.00,VWS V14.00,2013-01-01 21:04:00,
2013-01-01 15:09:00,10.4,5.5,30.26,SSE,161,0.0,2.0,80,0.00,,---,0.00,32.00,VWS V14.00,2013-01-01 21:09:00,
2013-01-01 15:14:00,10.4,5.5,30.26,SW,214,0.0,6.0,80,0.00,,---,0.00,30.00,VWS V14.00,2013-01-01 21:14:00,
2013-01-01 15:19:00,10.4,5.7,30.26,South,173,1.0,6.0,81,0.00,,---,0.00,30.00,VWS V14.00,2013-01-01 21:19:00,
2013-01-01 15:24:00,10.5,5.8,30.26,South,173,0.0,6.0,81,0.00,,---,0.00,26.00,VWS V14.00,2013-01-01 21:24:00,
2013-01-01 15:29:00,10.5,5.8,30.26,South,182,0.0,0.0,81,0.00,,---,0.00,25.00,VWS V14.00,2013-01-01 21:29:00,
2013-01-01 15:34:00,10.6,5.9,30.25,South,178,2.0,2.0,81,0.00,,---,0.00,23.00,VWS V14.00,2013-01-01 21:34:00,
2013-01-01 15:39:00,10.6,5.9,30.25,South,177,0.0,3.0,81,0.00,,---,0.00,19.00,VWS V14.00,2013-01-01 21:39:00,
2013-01-01 15:44:00,10.7,6.0,30.25,South,177,0.0,3.0,81,0.00,,---,0.00,19.00,VWS V14.00,2013-01-01 21:44:00,
2013-01-01 15:49:00,10.7,6.3,30.25,South,177,0.0,3.0,82,0.00,,---,0.00,16.00,VWS V14.00,2013-01-01 21:49:00,
2013-01-01 15:55:00,10.9,6.5,30.25,South,177,0.0,3.0,82,0.00,,---,0.00,14.00,VWS V14.00,2013-01-01 21:55:00,
2013-01-01 16:00:00,11.0,6.6,30.25,South,177,0.0,1.0,82,0.00,,---,0.00,12.00,VWS V14.00,2013-01-01 22:00:00,
2013-01-01 16:05:00,11.0,6.6,30.25,South,176,0.0,2.0,82,0.00,,---,0.00,11.00,VWS V14.00,2013-01-01 22:05:00,
2013-01-01 16:10:00,11.1,6.7,30.25,South,176,0.0,2.0,82,0.00,,---,0.00,9.00,VWS V14.00,2013-01-01 22:10:00,
2013-01-01 16:15:00,11.2,6.8,30.25,South,177,0.0,2.0,82,0.00,,---,0.00,7.00,VWS V14.00,2013-01-01 22:15:00,
2013-01-01 16:20:00,11.3,6.9,30.25,South,176,0.0,2.0,82,0.00,,---,0.00,7.00,VWS V14.00,2013-01-01 22:20:00,
2013-01-01 16:25:00,11.4,7.2,30.25,South,176,0.0,2.0,83,0.00,,---,0.00,5.00,VWS V14.00,2013-01-01 22:25:00,
2013-01-01 16:30:00,11.4,7.2,30.24,South,176,1.0,2.0,83,0.00,,---,0.00,5.00,VWS V14.00,2013-01-01 22:30:00,
2013-01-01 16:35:00,11.5,7.3,30.24,South,176,0.0,2.0,83,0.00,,---,0.00,0.00,VWS V14.00,2013-01-01 22:35:00,
2013-01-01 16:40:00,11.6,7.4,30.24,South,176,0.0,2.0,83,0.00,,---,0.00,0.00,VWS V14.00,2013-01-01 22:40:00,
2013-01-01 16:46:00,11.6,7.4,30.24,South,176,0.0,2.0,83,0.00,,---,0.00,0.00,VWS V14.00,2013-01-01 22:46:00,
2013-01-01 16:51:00,11.7,7.6,30.24,South,176,0.0,2.0,83,0.00,,---,0.00,0.00,VWS V14.00,2013-01-01 22:51:00,
2013-01-01 16:56:00,11.8,7.9,30.24,South,176,0.0,2.0,84,0.00,,---,0.00,0.00,VWS V14.00,2013-01-01 22:56:00,
2013-01-01 17:01:00,11.8,7.9,30.24,South,176,0.0,0.0,84,0.00,,---,0.00,0.00,VWS V14.00,2013-01-01 23:01:00,
2013-01-01 17:06:00,11.9,8.0,30.23,South,176,0.0,0.0,84,0.00,,---,0.00,0.00,VWS V14.00,2013-01-01 23:06:00,
2013-01-01 17:11:00,11.9,8.0,30.23,South,176,0.0,0.0,84,0.00,,---,0.00,0.00,VWS V14.00,2013-01-01 23:11:00,
2013-01-01 17:16:00,12.0,8.1,30.23,South,176,0.0,0.0,84,0.00,,---,0.00,0.00,VWS V14.00,2013-01-01 23:16:00,
2013-01-01 17:21:00,12.0,8.1,30.23,South,176,0.0,0.0,84,0.00,,---,0.00,0.00,VWS V14.00,2013-01-01 23:21:00,
2013-01-01 17:26:00,12.1,8.2,30.23,South,176,0.0,0.0,84,0.00,,---,0.00,0.00,VWS V14.00,2013-01-01 23:26:00,
2013-01-01 17:32:00,12.1,8.2,30.23,South,176,0.0,0.0,84,0.00,,---,0.00,0.00,VWS V14.00,2013-01-01 23:32:00,
2013-01-01 17:37:00,12.2,8.3,30.22,South,176,0.0,0.0,84,0.00,,---,0.00,0.00,VWS V14.00,2013-01-01 23:37:00,
2013-01-01 17:42:00,12.2,8.6,30.22,South,176,0.0,0.0,85,0.00,,---,0.00,0.00,VWS V14.00,2013-01-01 23:42:00,
2013-01-01 17:47:00,12.3,8.7,30.22,South,176,0.0,0.0,85,0.00,,---,0.00,0.00,VWS V14.00,2013-01-01 23:47:00,
2013-01-01 17:52:00,12.4,8.8,30.22,South,176,0.0,0.0,85,0.00,,---,0.00,0.00,VWS V14.00,2013-01-01 23:52:00,
2013-01-01 17:57:00,12.5,8.9,30.22,South,176,0.0,0.0,85,0.00,,---,0.00,0.00,VWS V14.00,2013-01-01 23:57:00,
2013-01-01 18:02:00,12.6,9.0,30.22,South,176,0.0,0.0,85,0.00,,---,0.00,0.00,VWS V14.00,2013-01-02 00:02:00,
2013-01-01 18:07:00,12.6,9.0,30.21,South,176,0.0,0.0,85,0.00,,---,0.00,0.00,VWS V14.00,2013-01-02 00:07:00,
2013-01-01 18:12:00,12.7,9.3,30.22,South,176,0.0,0.0,86,0.00,,---,0.00,0.00,VWS V14.00,2013-01-02 00:12:00,
2013-01-01 18:17:00,12.8,9.4,30.21,South,176,0.0,0.0,86,0.00,,---,0.00,0.00,VWS V14.00,2013-01-02 00:17:00,
2013-01-01 18:23:00,12.9,9.5,30.21,South,176,0.0,0.0,86,0.00,,---,0.00,0.00,VWS V14.00,2013-01-02 00:23:00,
2013-01-01 18:28:00,12.9,9.5,30.21,South,176,0.0,0.0,86,0.00,,---,0.00,0.00,VWS V14.00,2013-01-02 00:28:00,
2013-01-01 18:33:00,13.0,9.6,30.21,South,176,0.0,0.0,86,0.00,,---,0.00,0.00,VWS V14.00,2013-01-02 00:33:00,
2013-01-01 18:38:00,13.1,9.7,30.20,South,176,0.0,0.0,86,0.00,,---,0.00,0.00,VWS V14.00,2013-01-02 00:38:00,
2013-01-01 18:43:00,13.2,10.1,30.20,South,176,0.0,0.0,87,0.00,,---,0.00,0.00,VWS V14.00,2013-01-02 00:43:00,
2013-01-01 18:48:00,13.3,9.9,30.20,South,176,0.0,0.0,86,0.00,,---,0.00,0.00,VWS V14.00,2013-01-02 00:48:00,
2013-01-01 18:53:00,13.4,10.0,30.20,South,176,0.0,0.0,86,0.00,,---,0.00,0.00,VWS V14.00,2013-01-02 00:53:00,
2013-01-01 18:58:00,13.5,10.1,30.19,South,176,0.0,0.0,86,0.00,,---,0.00,0.00,VWS V14.00,2013-01-02 00:58:00,
2013-01-01 19:03:00,13.6,10.2,30.20,South,176,0.0,0.0,86,0.00,,---,0.00,0.00,VWS V14.00,2013-01-02 01:03:00,
2013-01-01 19:08:00,13.6,10.2,30.20,South,176,0.0,0.0,86,0.00,,---,0.00,0.00,VWS V14.00,2013-01-02 01:08:00,
2013-01-01 19:13:00,13.7,10.6,30.19,South,176,0.0,0.0,87,0.00,,---,0.00,0.00,VWS V14.00,2013-01-02 01:13:00,
2013-01-01 19:19:00,13.7,10.6,30.19,South,176,0.0,0.0,87,0.00,,---,0.00,0.00,VWS V14.00,2013-01-02 01:19:00,
2013-01-01 19:24:00,13.8,10.4,30.19,South,176,0.0,0.0,86,0.00,,---,0.00,0.00,VWS V14.00,2013-01-02 01:24:00,
2013-01-01 19:29:00,13.9,10.5,30.19,South,176,0.0,0.0,86,0.00,,---,0.00,0.00,VWS V14.00,2013-01-02 01:29:00,
2013-01-01 19:34:00,13.9,10.8,30.19,South,176,0.0,0.0,87,0.00,,---,0.00,0.00,VWS V14.00,2013-01-02 01:34:00,
2013-01-01 19:39:00,14.0,10.9,30.19,South,176,0.0,0.0,87,0.00,,---,0.00,0.00,VWS V14.00,2013-01-02 01:39:00,
2013-01-01 19:44:00,14.1,10.9,30.18,South,176,0.0,0.0,87,0.00,,---,0.00,0.00,VWS V14.00,2013-01-02 01:44:00,
2013-01-01 19:49:00,14.1,10.9,30.18,South,176,0.0,0.0,87,0.00,,---,0.00,0.00,VWS V14.00,2013-01-02 01:49:00,
2013-01-01 19:54:00,14.3,11.1,30.18,South,176,0.0,0.0,87,0.00,,---,0.00,0.00,VWS V14.00,2013-01-02 01:54:00,
2013-01-01 19:59:00,14.3,11.1,30.18,South,176,0.0,0.0,87,0.00,,---,0.00,0.00,VWS V14.00,2013-01-02 01:59:00,
2013-01-01 20:04:00,14.4,11.2,30.18,South,176,0.0,0.0,87,0.00,,---,0.00,0.00,VWS V14.00,2013-01-02 02:04:00,
2013-01-01 20:09:00,14.4,11.2,30.18,South,176,0.0,0.0,87,0.00,,---,0.00,0.00,VWS V14.00,2013-01-02 02:09:00,
2013-01-01 20:14:00,14.6,11.7,30.18,South,176,0.0,0.0,88,0.00,,---,0.00,0.00,VWS V14.00,2013-01-02 02:14:00,
2013-01-01 20:20:00,14.6,11.7,30.17,South,176,0.0,0.0,88,0.00,,---,0.00,0.00,VWS V14.00,2013-01-02 02:20:00,
2013-01-01 20:25:00,14.7,11.8,30.17,South,176,0.0,1.0,88,0.00,,---,0.00,0.00,VWS V14.00,2013-01-02 02:25:00,
2013-01-01 20:30:00,14.8,11.9,30.17,South,175,0.0,0.0,88,0.00,,---,0.00,0.00,VWS V14.00,2013-01-02 02:30:00,
2013-01-01 20:35:00,14.9,12.0,30.17,South,175,0.0,0.0,88,0.00,,---,0.00,0.00,VWS V14.00,2013-01-02 02:35:00,
2013-01-01 20:40:00,15.0,12.1,30.17,South,175,0.0,1.0,88,0.00,,---,0.00,0.00,VWS V14.00,2013-01-02 02:40:00,
2013-01-01 20:45:00,15.1,12.2,30.17,South,175,0.0,1.0,88,0.00,,---,0.00,0.00,VWS V14.00,2013-01-02 02:45:00,
2013-01-01 20:50:00,15.2,12.3,30.17,South,175,0.0,2.0,88,0.00,,---,0.00,0.00,VWS V14.00,2013-01-02 02:50:00,
2013-01-01 20:55:00,15.3,12.4,30.17,South,175,0.0,2.0,88,0.00,,---,0.00,0.00,VWS V14.00,2013-01-02 02:55:00,
2013-01-01 21:00:00,15.5,12.8,30.17,South,175,0.0,0.0,89,0.00,,---,0.00,0.00,VWS V14.00,2013-01-02 03:00:00,
2013-01-01 21:05:00,15.6,12.7,30.16,South,175,0.0,0.0,88,0.00,,---,0.00,0.00,VWS V14.00,2013-01-02 03:05:00,
2013-01-01 21:10:00,15.7,13.0,30.16,South,174,0.0,1.0,89,0.00,,---,0.00,0.00,VWS V14.00,2013-01-02 03:10:00,
2013-01-01 21:16:00,15.8,13.1,30.16,South,173,0.0,2.0,89,0.00,,---,0.00,0.00,VWS V14.00,2013-01-02 03:16:00,
2013-01-01 21:21:00,15.9,13.2,30.16,South,173,0.0,2.0,89,0.00,,---,0.00,0.00,VWS V14.00,2013-01-02 03:21:00,
2013-01-01 21:26:00,16.0,13.3,30.16,South,173,0.0,2.0,89,0.00,,---,0.00,0.00,VWS V14.00,2013-01-02 03:26:00,
2013-01-01 21:31:00,16.1,13.4,30.15,South,173,0.0,0.0,89,0.00,,---,0.00,0.00,VWS V14.00,2013-01-02 03:31:00,
2013-01-01 21:36:00,16.3,13.9,30.15,SSE,152,0.0,3.0,90,0.00,,---,0.00,0.00,VWS V14.00,2013-01-02 03:36:00,
2013-01-01 21:41:00,16.5,13.8,30.15,SSE,152,0.0,3.0,89,0.00,,---,0.00,0.00,VWS V14.00,2013-01-02 03:41:00,
2013-01-01 21:46:00,16.6,13.9,30.15,SSE,152,0.0,3.0,89,0.00,,---,0.00,0.00,VWS V14.00,2013-01-02 03:46:00,
2013-01-01 21:51:00,16.8,14.4,30.15,SSE,152,0.0,3.0,90,0.00,,---,0.00,0.00,VWS V14.00,2013-01-02 03:51:00,
2013-01-01 21:56:00,17.1,14.7,30.15,SSE,150,0.0,3.0,90,0.00,,---,0.00,0.00,VWS V14.00,2013-01-02 03:56:00,
2013-01-01 22:01:00,17.2,14.8,30.15,SSE,150,0.0,1.0,90,0.00,,---,0.00,0.00,VWS V14.00,2013-01-02 04:01:00,
2013-01-01 22:06:00,17.3,14.9,30.14,SSE,150,0.0,1.0,90,0.00,,---,0.00,0.00,VWS V14.00,2013-01-02 04:06:00,
2013-01-01 22:11:00,17.3,14.9,30.14,SSE,150,0.0,1.0,90,0.00,,---,0.00,0.00,VWS V14.00,2013-01-02 04:11:00,
2013-01-01 22:17:00,17.5,15.1,30.14,SSE,150,1.0,1.0,90,0.00,,---,0.00,0.00,VWS V14.00,2013-01-02 04:17:00,
2013-01-01 22:22:00,17.7,15.3,30.14,South,171,0.0,4.0,90,0.00,,---,0.00,0.00,VWS V14.00,2013-01-02 04:22:00,
2013-01-01 22:27:00,17.9,15.5,30.14,SSE,157,0.0,4.0,90,0.00,,---,0.00,0.00,VWS V14.00,2013-01-02 04:27:00,
2013-01-01 22:32:00,18.1,15.7,30.14,SSE,168,0.0,2.0,90,0.00,,---,0.00,0.00,VWS V14.00,2013-01-02 04:32:00,
2013-01-01 22:37:00,18.4,16.0,30.13,SE,134,1.0,2.0,90,0.00,,---,0.00,0.00,VWS V14.00,2013-01-02 04:37:00,
2013-01-01 22:42:00,18.5,16.1,30.13,South,180,3.0,3.0,90,0.00,,---,0.00,0.00,VWS V14.00,2013-01-02 04:42:00,
2013-01-01 22:47:00,18.6,15.9,30.13,South,182,1.0,3.0,89,0.00,,---,0.00,0.00,VWS V14.00,2013-01-02 04:47:00,
2013-01-01 22:52:00,18.7,16.0,30.13,SSW,196,2.0,3.0,89,0.00,,---,0.00,0.00,VWS V14.00,2013-01-02 04:52:00,
2013-01-01 22:57:00,18.7,16.0,30.13,SSW,196,0.0,3.0,89,0.00,,---,0.00,0.00,VWS V14.00,2013-01-02 04:57:00,
2013-01-01 23:00:00,18.8,16.1,30.13,South,189,0.0,4.0,89,0.00,,---,0.00,0.00,VWS V14.00,2013-01-02 05:00:00,
2013-01-01 23:01:00,18.8,16.1,30.13,South,188,1.0,4.0,89,0.00,,---,0.00,0.00,VWS V14.00,2013-01-02 05:01:00,
2013-01-01 23:02:00,18.8,16.1,30.13,South,188,0.0,4.0,89,0.00,,---,0.00,0.00,VWS V14.00,2013-01-02 05:02:00,
2013-01-01 23:07:00,18.8,16.1,30.13,South,172,1.0,4.0,89,0.00,,---,0.00,0.00,VWS V14.00,2013-01-02 05:07:00,
2013-01-01 23:12:00,18.8,16.1,30.13,South,169,0.0,4.0,89,0.00,,---,0.00,0.00,VWS V14.00,2013-01-02 05:12:00,
2013-01-01 23:17:00,18.8,16.1,30.13,South,173,0.0,4.0,89,0.00,,---,0.00,0.00,VWS V14.00,2013-01-02 05:17:00,
2013-01-01 23:22:00,18.9,16.2,30.13,South,188,4.0,4.0,89,0.00,,---,0.00,0.00,VWS V14.00,2013-01-02 05:22:00,
2013-01-01 23:27:00,18.9,16.2,30.12,South,173,0.0,4.0,89,0.00,,---,0.00,0.00,VWS V14.00,2013-01-02 05:27:00,
2013-01-01 23:32:00,18.9,16.2,30.13,SSE,162,0.0,2.0,89,0.00,,---,0.00,0.00,VWS V14.00,2013-01-02 05:32:00,
2013-01-01 23:37:00,18.9,16.2,30.12,South,179,1.0,2.0,89,0.00,,---,0.00,0.00,VWS V14.00,2013-01-02 05:37:00,
2013-01-01 23:42:00,18.9,16.2,30.12,SSE,166,0.0,2.0,89,0.00,,---,0.00,0.00,VWS V14.00,2013-01-02 05:42:00,
2013-01-01 23:48:00,18.9,16.2,30.12,SSW,203,0.0,3.0,89,0.00,,---,0.00,0.00,VWS V14.00,2013-01-02 05:48:00,
2013-01-01 23:53:00,18.9,16.2,30.12,South,172,0.0,3.0,89,0.00,,---,0.00,0.00,VWS V14.00,2013-01-02 05:53:00,
2013-01-01 23:58:00,18.9,16.2,30.12,SSE,161,0.0,1.0,89,0.00,,---,0.00,0.00,VWS V14.00,2013-01-02 05:58:00,